Погода в Салдусе

Погода в Салдусе : погода сейчас, прогноз погоды и архив. Всё, что Вы хотите узнать о погоде в Салдусе!

Поиск расширенной информации на нашем сайте:

Другие новости

Новости СМИ2

Главная страница сайта

Новости сайта

03.07.2017

Напоминаем, что на нашем специализированном сайте Метеоцентр.Азия вы можете получить высокодетализированные автоматические прогнозы погоды по пунктам России, СНГ и мира в авиационном формате (включающие направление и скорость ветра, видимость, явления погоды, количество и форму облачности, нижнюю и верхнюю границу облачности).


Погода в Салдусе - сегодня

Время (UTC), дата Ветер
(°,м/с) 
Видим.   Явления Облачность Т
(°С)
Тd
(°С)
f(%) Тe
(°С)
Pmin
(гПа)
dP
(гПа)
Po
(мм)
O2
(г/м3)
Тmin Tmax R s Состояние
почвы
00 16.02.18 180 (Ю) 4-6  н/о    н/о 
-4.7 -7.3 82 -8  1024  -0.6  757  311           
03 16.02.18 150 (ЮВ) 2-4  н/о    н/о 
-6.1 -8.2 85 -8  1022.6  756  312           
06 16.02.18 150 (ЮВ) 2-3  н/о    н/о 
-6.4 -7.9 89 -8  1021.3  -1.2  755  312           
09 16.02.18 140 (ЮВ) 3-6  н/о    н/о 
-5 -6.9 86 -7  1020.4  754  310           
12 16.02.18 140 (ЮВ) 2-4  н/о    н/о 
-3.7 -6 84 -5  1020.1  -0.3  754  309           
15 16.02.18 150 (ЮВ) 2-3  н/о    н/о 
-3.6 -5.1 89 -5  1019.4  -0.6  754  308           
18 16.02.18 130 (ЮВ) 1-1  н/о    н/о 
-3.8 -4.5 95 -3  1019.4  0.1  754  308           
21 16.02.18 150 (ЮВ) 1-1  н/о    н/о 
-4.2 -4.8 96 -4  1018.9  753  309           
00 17.02.18 100 (В) 1-2  н/о    н/о 
-4.2 -5 94 -4  1018.7  753  309           
03 17.02.18 040 (СВ) 1-1  н/о    н/о 
-4.4 -5.2 94 -4  1018.5  -0.2  753  309           
06 17.02.18 000 (С) 2-2  н/о    н/о 
-4.8 -5.6 94 -6  1018.8  0.3  753  310           
09 17.02.18 350 (С) 2-2  н/о    н/о 
-4.2 -5.4 91 -5  1019.2  0.4  754  309           
12 17.02.18 330 (СЗ) 3-4  н/о    н/о 
-2 -4.1 85 -4  1019.6  0.5  754  307           
15 17.02.18 340 (С) 3-5  н/о    н/о 
-2.6 -4.3 88 -5  1020.3  0.6  754  307           
18 17.02.18 010 (С) 4-6  н/о    н/о 
-3.8 -5.8 86 -7  1021.2  0.8  755  309           
21 17.02.18 330 (СЗ) 3-5  н/о    н/о 
-4 -6.1 85 -6  1022.2  756  310           
00 18.02.18 330 (СЗ) 3-5  н/о    н/о 
-4.1 -5.8 88 -6  1022.9  756  310           
03 18.02.18 350 (С) 4-6  н/о    н/о 
-4 -6.1 85 -7  1023.8  0.9  757  310           
06 18.02.18 310 (СЗ) 3-4  н/о    н/о 
-6.1 -7.6 89 -9  1024.9  0.9  758  313           
09 18.02.18 300 (СЗ) 2-3  н/о    н/о 
-4.3 -7.1 81 -6  1025.1  0.3  758  311           
12 18.02.18 230 (ЮЗ) 2-4  н/о    н/о 
-3 -4.6 89 -4  1024.7  -0.3  758  309           
15 18.02.18 260 (З) 3-4  н/о    н/о 
-1.3 -2 95 -3  1023.6  -0.9  757  307           
18 18.02.18 300 (СЗ) 4-5  н/о    н/о 
-0.6 -2.8 85 -3  1023.7  0.1  757  306           
21 18.02.18 300 (СЗ) 1-2  н/о    н/о 
-1.2 -2.4 92 -1  1023.4  -0.4  757  307           
00 19.02.18 260 (З) 2-2  н/о    н/о 
-1.6 -2.2 96 -3  1023.1  -0.3  757  307           
Время (UTC), дата Ветер
(°,м/с) 
Видим.   Явления Облачность Т
(°С)
Тd
(°С)
f(%) Тe
(°С)
Pmin
(гПа)
dP
(гПа)
Po
(мм)
O2
(г/м3)
Тmin Tmax R s Состояние
почвы

Для получения пояснительной информации подведите курсор к названию столбца.

ПОГОДА в Салдусе - архив

Всё, что Вы хотите узнать о погоде в Салдусе - удобно и подробно!

Выберите нужную дату (начиная с 1 января 2015* года) и нажмите кнопку "Найти".
Будут отображены архивные сводки погоды по пункту Салдус, начиная с указанной даты.


Отображать данные в формате CSV (для использования в таблицах Excel)


Внимание! Наш архив погоды предназначен исключительно для личного некоммерческого использования в познавательных целях. Если Вам необходимы официальные справки о состоянии погоды (для производственных, юридических, коммерческих и т.п. целей), обращайтесь в органы Росгидромета.

*Примечание: данная дата относится к архиву по метеостанциям СССР (Россия, СНГ, Балтия).
Архив по метеостанциям Зарубежной Европы и Азии (кроме Китая) хранится 10 дней, по другим регионам земного шара (Китай, Африка, Америка, Австралия, Океания) - 1 день.

Салдус - район местоположения метеостанции


Название, широта, долгота, высота метеостанции:
Салдус 56.7°ш. 22.5°д. 112 м над ур. моря [Латвия]

Дополнительная информация

В oтличие oт бoльшинства пoгoдных сайтoв мы публикуем пoдрoбную метеoинфoрмацию в детальнoм прoфессиoнальнoм фoрмате.

Характеристики температуры и влажнoсти вoздуха измеряются на высoте 2 м в тени вдали oт зданий и деревьев.
Скoрoсть ветра измеряется на высoте 10 м (на урoвне рoста челoвека скoрoсть ветра ниже в 1.5-2 раза). Если метеoстанция нахoдится в гoрoде или в лесу, тo скoрoсть ветра занижена на 2-4 м/с пo сравнению с oткрытым местoм. Скoрoсть ветра над акватoриями крупных рек и oзёр, а также на вершинах хoлмoв на 2-5 м/с выше, чем в oбычных услoвиях.
Атмoсфернoе давление в разных тoчках местнoсти мoжет значительнo oтличаться oт давления на метеoстанции, в зависимoсти oт услoвий рельефа (при пoдъёме на 10 м давление пoнижается примернo на 1 мм рт.ст.).